Theta_e
333 333 333 333 332 332 332 332 331 331 331 332 333 332 333 333 333 333 333 333 333 333 332 332 332 331 330 330 331 330 330 330 329 328 329 330 330 331 332 331 330 329 329 331 331 331 331 330 331 331 330 330 331 330 330 330 330 330 329 328 328 329 328
334 334 333 333 332 331 330 330 330 330 330 331 332 333 333 333 333 333 333 333 333 333 332 332 332 332 331 331 331 331 330 330 329 329 329 330 331 331 331 332 331 330 330 331 331 331 331 330 330 330 330 330 330 330 330 329 329 329 329 329 329 329 328
333 333 333 333 333 332 331 331 329 329 329 330 332 333 333 333 333 333 333 333 333 333 332 332 332 333 332 331 330 329 329 329 328 329 330 330 330 330 331 331 331 330 331 331 331 331 331 330 330 330 330 331 330 330 329 329 330 329 329 329 328 328 328
332 332 333 332 333 332 331 331 331 329 328 329 331 332 333 332 333 333 333 333 333 333 332 332 333 333 331 330 329 328 327 328 328 329 330 330 330 330 329 330 330 330 331 331 331 331 330 330 330 330 330 330 330 330 329 329 330 329 329 329 329 329 329
331 331 331 331 332 332 331 330 330 329 328 329 330 331 331 332 333 333 332 332 332 333 333 333 333 332 330 329 329 328 327 327 328 329 330 330 330 329 328 330 330 330 330 330 330 330 330 330 330 330 330 330 330 330 330 330 330 329 328 329 328 329 329
331 331 331 331 331 330 330 329 329 329 329 330 329 330 331 332 333 333 332 332 332 332 332 333 333 332 330 330 329 328 327 327 327 329 329 330 330 329 329 330 330 329 329 329 329 329 330 330 330 330 330 330 330 329 329 329 329 329 328 328 328 328 328
330 330 330 331 330 329 329 327 327 328 329 329 329 329 331 332 332 332 332 332 332 331 331 331 332 331 330 330 329 328 328 327 327 329 329 330 330 329 330 331 330 329 329 329 329 330 331 330 330 330 330 330 330 329 329 329 329 329 329 328 327 328 327
329 330 329 329 329 329 328 326 326 327 327 327 328 329 331 332 332 332 332 332 332 332 330 330 330 331 330 330 329 329 328 327 326 328 329 330 329 329 329 330 330 329 329 329 330 330 330 330 330 330 330 330 330 329 329 328 329 329 328 328 327 327 327
328 329 330 330 328 328 328 326 325 325 325 326 327 329 330 331 331 332 332 332 332 331 329 328 329 330 330 330 329 329 327 326 326 328 329 329 328 328 329 330 329 329 328 329 330 330 330 330 330 330 330 329 329 329 329 329 329 328 328 328 328 327 326
327 329 330 330 329 328 327 327 326 325 324 324 326 328 329 330 331 331 331 331 331 330 329 329 329 330 330 329 329 327 326 327 328 330 329 328 328 328 329 330 328 328 328 330 330 331 330 330 330 330 329 329 328 328 329 328 328 328 328 328 327 327 325
328 329 330 330 330 330 328 327 327 325 323 324 325 327 328 330 330 331 331 331 330 330 330 330 330 330 330 329 327 326 327 329 330 329 328 329 330 329 329 329 329 329 330 330 331 331 331 331 330 330 329 329 328 328 327 328 328 328 328 328 327 327 325
327 328 329 330 330 330 330 329 329 327 324 324 327 328 328 328 328 329 331 331 330 330 331 331 330 329 329 329 329 329 330 330 329 328 329 329 330 328 328 329 327 328 330 329 330 331 331 331 331 330 330 329 329 329 328 327 326 326 328 328 327 327 326
327 327 328 329 330 330 330 330 329 328 326 325 328 328 327 328 328 329 331 330 330 330 331 330 329 327 328 330 331 330 330 329 328 328 328 329 328 327 328 328 326 329 330 330 330 331 331 331 331 330 329 329 329 329 328 328 326 326 328 328 327 327 325
325 327 327 328 329 329 329 329 329 328 326 326 328 327 326 327 327 329 330 329 330 330 329 330 329 328 329 330 331 331 330 328 327 327 328 330 329 329 329 329 328 330 331 330 330 331 330 331 330 330 329 329 329 329 329 328 326 327 328 327 327 325 322
323 326 327 327 327 329 330 330 330 329 327 328 328 327 327 327 327 329 329 329 330 330 329 330 330 330 330 329 330 331 329 326 326 328 330 331 331 330 330 330 330 331 331 330 331 330 329 330 330 329 329 328 328 329 329 328 325 325 325 325 325 323 318
322 325 327 327 327 329 330 330 330 329 328 329 329 328 328 327 327 328 328 328 329 329 330 331 329 330 329 328 328 329 328 326 327 330 331 331 331 330 330 330 330 331 331 330 330 329 329 329 328 328 328 328 328 328 328 328 326 324 324 323 324 323 319
324 326 328 327 327 328 329 329 330 330 329 330 329 328 328 326 325 326 327 327 326 327 330 330 329 329 329 327 327 328 328 327 328 329 328 328 329 329 330 330 330 330 330 330 330 329 329 329 328 328 328 328 328 328 328 328 327 324 323 323 323 323 322
327 327 327 328 328 328 329 330 330 330 330 330 329 328 327 325 326 328 329 327 325 326 329 329 328 329 328 328 327 326 326 325 325 326 326 326 326 327 328 329 330 330 329 330 330 329 329 329 328 327 328 327 327 329 328 327 327 325 324 324 324 323 323
328 327 327 328 328 328 329 329 330 330 330 329 328 328 327 326 327 329 329 329 327 326 327 327 328 329 328 328 327 325 324 322 322 324 325 325 325 325 327 328 329 329 329 330 331 329 329 328 328 328 328 327 327 327 327 327 327 327 325 324 324 324 324
328 328 327 328 328 329 329 329 330 330 330 329 327 326 326 327 328 328 329 329 327 325 326 327 328 328 328 327 326 323 321 320 321 324 326 326 324 323 326 328 328 329 329 330 329 328 328 329 328 328 328 328 327 326 327 327 327 327 326 325 325 325 325
327 327 328 327 327 328 329 328 328 329 330 329 327 326 327 328 329 328 328 328 326 325 326 327 326 327 327 325 323 319 319 321 324 325 327 326 323 323 327 329 329 329 329 329 328 327 328 328 328 328 328 328 328 327 327 327 326 326 325 325 325 324 325
325 326 327 327 327 327 327 327 328 328 329 330 328 327 328 329 329 328 327 327 326 325 326 327 325 325 326 324 319 317 320 323 324 325 325 325 323 324 327 329 328 327 327 327 326 326 327 327 327 328 327 326 326 326 326 327 326 325 325 325 324 325 325
324 325 325 326 326 327 327 327 327 328 328 329 329 327 327 328 328 327 326 325 325 325 326 325 324 324 324 322 319 319 322 323 323 323 323 322 321 323 325 326 325 325 325 325 325 325 325 324 324 325 324 323 323 325 326 326 325 324 324 324 323 323 323
324 324 324 324 325 326 326 326 327 327 326 327 328 327 326 327 328 327 325 325 324 324 324 324 323 323 321 320 321 321 322 322 322 322 322 321 319 320 323 325 326 325 324 323 323 324 323 322 320 321 320 320 320 322 324 325 324 324 323 322 322 322 321
323 323 324 324 324 324 325 325 327 327 326 327 328 327 327 327 328 327 325 324 322 322 323 323 323 323 322 322 322 321 321 321 321 322 323 322 320 319 322 325 326 324 322 320 321 321 320 320 319 319 319 318 319 319 320 322 323 323 323 322 322 322 322
321 322 322 323 323 323 324 324 325 326 326 326 327 327 326 326 327 326 324 322 321 321 323 323 323 322 321 321 321 320 320 320 321 322 322 322 321 321 323 326 324 321 320 319 320 320 319 320 320 320 320 320 320 320 320 320 321 321 322 322 323 323 322
320 321 322 322 323 323 323 323 323 323 323 324 325 325 325 325 325 323 322 323 322 323 323 324 323 321 320 320 319 319 320 320 320 322 321 321 322 323 324 324 321 320 320 320 320 320 320 320 320 319 319 318 318 318 317 317 317 317 318 320 321 321 319
320 320 321 321 321 322 322 322 322 321 321 322 322 322 321 322 323 322 321 322 322 323 323 323 322 321 320 320 319 319 320 320 320 321 321 322 324 324 322 321 320 320 320 320 320 319 319 318 317 316 315 314 314 314 314 314 314 315 316 316 318 318 318
319 319 319 320 320 320 320 320 319 319 320 321 321 320 321 322 322 322 321 321 321 322 322 322 321 320 321 321 320 319 320 321 321 321 321 323 324 323 320 319 320 320 319 318 317 317 316 315 315 314 314 313 313 313 313 313 313 314 315 316 317 317 317
318 319 319 320 319 319 319 318 317 317 318 320 321 321 320 320 319 317 317 319 321 321 320 321 321 320 319 319 319 319 320 321 322 322 322 322 323 321 319 319 319 319 317 315 314 314 314 315 316 315 314 313 313 313 313 313 313 314 315 315 316 316 316
317 317 318 319 319 318 318 317 317 317 318 319 320 319 316 315 316 316 315 317 320 320 318 320 321 320 318 318 319 319 320 321 322 322 321 321 321 319 318 319 318 316 314 313 313 313 312 314 316 316 314 314 314 313 313 314 314 315 315 315 315 316 316
315 315 316 317 317 317 317 316 316 316 317 318 317 316 316 315 316 317 318 319 320 319 318 319 320 319 318 318 319 320 321 320 320 320 319 319 320 319 317 318 317 314 312 312 312 312 312 313 315 315 314 315 316 314 314 315 315 316 316 315 315 315 315
314 314 314 315 315 315 315 315 315 316 316 316 316 317 317 316 314 316 318 319 319 319 319 319 319 318 318 319 319 319 318 317 317 317 317 317 317 317 316 315 314 312 312 312 312 312 312 312 314 315 316 317 316 316 316 316 316 316 316 315 315 314 314
313 313 313 313 313 314 314 314 314 314 315 316 316 316 317 316 315 316 317 317 318 318 318 318 318 319 319 319 318 317 316 315 314 314 315 314 314 314 314 313 312 312 312 313 312 313 313 313 314 316 316 316 316 316 316 316 315 315 314 312 311 310 310
312 312 312 312 312 312 312 312 313 313 313 313 314 314 314 314 314 315 315 315 316 316 316 316 316 317 317 317 316 315 314 315 314 314 314 313 312 313 313 312 313 313 313 314 314 315 315 315 315 315 315 315 315 314 314 313 312 311 308 306 306 306 307
309 310 310 311 311 311 311 311 311 311 311 311 311 311 311 311 312 312 312 313 313 314 314 315 314 315 314 314 314 314 314 314 314 314 314 314 314 314 314 315 315 315 315 315 315 315 314 314 313 313 313 312 311 310 309 308 307 306 304 302 302 302 304
307 306 306 307 307 308 308 309 309 309 309 309 309 308 308 309 309 310 310 311 312 313 314 314 315 315 314 313 313 313 313 313 312 313 312 313 314 314 314 314 314 314 314 314 314 313 311 310 309 309 308 307 306 304 303 301 301 301 300 300 300 299 300
Wind_Speed
11 11 12 12 12 13 13 14 15 15 15 15 17 17 18 19 20 19 19 20 21 22 25 26 24 24 25 26 26 24 23 22 21 22 21 20 20 20 19 18 17 13 8 9 9 7 9 11 11 10 10 9 9 9 9 9 9 9 10 9 7 7 7
11 12 12 12 12 13 13 14 15 15 16 17 17 18 18 19 20 20 19 20 22 23 25 25 23 24 26 25 24 24 23 23 22 21 21 20 19 19 18 18 16 12 9 9 8 7 7 10 12 12 11 10 10 10 10 10 10 10 10 9 8 7 7
12 13 13 12 12 13 13 14 15 15 17 19 18 18 18 19 20 20 19 20 21 23 24 24 23 24 26 24 22 23 23 23 22 21 20 20 19 18 18 17 16 14 11 9 8 8 7 6 8 11 12 11 11 11 11 10 9 10 10 9 9 7 6
14 14 14 14 12 12 13 14 14 14 16 19 19 18 18 18 19 20 19 18 18 21 22 22 23 24 25 24 22 21 22 22 21 20 20 20 19 17 16 16 16 15 13 11 9 9 9 7 7 9 11 11 11 10 11 10 9 9 10 9 8 8 7
14 15 16 15 13 13 14 14 14 14 15 16 16 17 17 17 18 19 20 19 18 20 22 21 22 24 24 23 21 20 21 22 21 20 20 20 20 18 17 17 17 17 15 13 12 11 9 8 8 9 10 11 10 9 10 10 9 9 10 10 9 9 8
16 16 16 16 15 16 16 15 15 14 14 14 14 16 16 16 17 19 20 20 19 21 22 21 22 24 23 21 20 20 21 22 21 21 20 21 21 19 18 18 18 18 16 13 12 11 9 8 9 8 9 10 10 9 10 10 9 9 10 10 11 10 9
16 18 18 18 17 16 17 17 16 15 14 14 14 14 14 16 17 18 19 19 17 18 21 22 22 23 22 20 19 20 21 21 20 20 20 20 21 21 19 18 18 18 16 12 10 9 9 9 9 9 9 10 9 9 9 10 10 10 9 10 10 10 9
12 14 18 20 19 16 16 17 16 15 16 15 14 13 13 14 15 16 18 18 17 18 20 23 23 22 21 20 20 21 21 20 19 20 20 20 20 20 18 17 18 18 14 11 10 9 9 9 9 10 10 10 10 9 9 10 10 10 9 8 9 9 9
11 11 12 15 16 16 16 17 16 16 16 16 15 15 15 13 12 15 16 16 17 18 19 21 21 21 21 20 21 22 21 20 20 19 19 18 19 18 16 14 17 17 14 12 11 10 9 10 9 10 10 9 10 10 10 10 10 10 9 8 8 9 9
11 11 10 11 12 13 14 15 15 16 16 17 16 16 16 14 13 14 16 17 18 19 20 21 21 21 20 20 21 22 21 20 20 19 18 17 18 19 17 16 16 15 13 12 12 10 10 10 10 10 10 9 9 10 10 12 11 10 10 10 8 8 8
9 10 11 11 11 11 13 14 15 16 17 17 17 15 15 16 16 17 17 18 19 20 21 21 21 21 20 19 20 20 20 20 20 20 19 18 19 19 17 17 16 15 15 15 12 11 11 11 11 10 10 9 10 10 10 10 11 9 10 11 9 7 7
9 10 10 11 12 12 13 13 14 15 16 16 16 14 14 16 18 19 19 18 20 21 20 20 21 20 19 18 18 18 19 19 18 18 18 18 20 18 16 16 16 13 13 14 12 11 11 11 11 10 10 10 11 10 8 7 9 10 9 10 9 7 8
8 9 9 10 11 12 12 12 12 13 15 15 14 13 13 16 18 19 20 19 20 21 20 20 20 19 19 19 18 18 18 17 17 17 17 16 16 15 14 16 15 11 10 11 11 11 11 11 11 10 10 10 10 9 8 6 8 11 9 10 10 8 10
7 8 8 8 9 10 11 10 11 12 14 15 13 11 12 16 18 19 19 17 18 19 19 19 19 19 19 19 18 17 17 17 16 15 13 13 13 13 13 13 12 11 11 11 11 11 11 11 11 11 10 11 10 10 10 8 7 11 11 10 10 9 9
5 6 7 7 8 9 9 9 10 12 14 14 13 11 13 16 17 17 17 15 15 16 16 17 19 19 19 18 17 16 17 18 16 13 12 13 13 13 13 12 12 12 12 11 11 11 11 11 11 11 12 11 11 12 12 9 7 11 12 11 11 9 8
5 5 5 6 7 7 7 7 8 9 11 12 12 13 14 16 16 16 16 16 16 16 15 16 17 17 17 17 16 16 16 16 16 15 14 14 14 14 13 13 12 12 11 11 11 11 11 11 12 12 13 13 13 13 13 9 7 11 13 12 11 10 9
6 5 4 5 6 6 5 6 7 9 10 11 13 14 15 16 16 17 17 15 16 16 16 16 15 15 15 15 15 14 13 13 13 14 14 14 14 13 13 12 11 12 11 11 11 11 11 12 13 12 14 15 14 13 13 11 8 10 12 11 11 9 8
6 5 4 3 4 5 5 6 7 8 10 12 14 15 15 15 16 17 16 15 16 17 16 15 14 14 15 14 14 13 12 11 11 11 12 13 13 12 12 12 11 11 11 11 12 12 12 12 12 12 14 14 13 13 13 12 10 9 10 10 9 9 8
5 5 4 3 3 4 5 6 7 8 10 13 13 13 14 15 15 15 15 16 17 16 14 13 13 13 13 12 12 12 10 10 11 12 12 11 12 12 12 12 12 12 12 12 12 12 12 12 12 11 12 10 11 13 14 13 10 10 10 9 8 9 9
5 5 5 4 3 3 4 6 6 7 10 12 13 13 13 13 14 14 14 14 15 15 13 12 13 12 11 11 11 10 9 11 12 11 10 11 11 12 12 12 12 12 12 11 12 13 13 12 11 11 11 10 10 12 13 12 11 10 9 9 8 8 8
6 5 5 4 4 4 4 5 5 7 10 11 11 11 11 12 14 15 15 14 16 15 12 12 12 12 10 10 10 9 10 12 12 10 9 10 11 12 12 11 11 12 13 13 13 13 12 12 11 11 12 12 11 11 12 11 11 10 10 9 9 8 8
8 5 4 4 4 4 5 6 6 8 9 9 10 11 11 12 14 14 14 14 14 14 12 11 12 11 10 10 10 11 12 12 12 10 10 10 11 12 12 13 13 14 15 15 15 14 14 14 13 12 13 14 13 13 12 11 11 10 10 10 9 9 8
8 7 5 3 2 3 5 6 7 8 9 11 12 12 12 12 13 13 13 13 13 13 11 10 9 10 11 12 12 13 13 13 12 11 11 10 11 11 12 14 14 14 14 14 14 15 16 16 15 14 14 15 14 13 11 10 10 10 10 10 9 9 8
9 8 8 8 5 2 4 5 5 7 8 9 12 12 12 14 15 14 13 12 12 10 9 9 9 10 11 12 14 14 13 12 12 11 10 10 10 10 11 13 14 14 14 15 15 15 16 16 15 14 14 13 13 12 11 10 9 9 9 9 9 8 8
11 10 10 10 9 6 5 4 4 7 6 6 9 11 13 15 16 15 12 10 9 8 9 11 12 11 12 12 13 13 12 12 12 11 11 10 9 10 11 13 15 16 16 15 15 15 15 15 13 13 12 12 12 12 12 11 10 9 7 7 8 7 7
12 12 12 12 11 9 9 8 5 6 7 5 7 10 12 15 15 14 10 7 7 8 11 13 12 11 11 11 11 11 11 11 11 12 12 11 9 9 11 14 17 18 17 17 16 15 15 14 13 12 11 11 11 11 11 11 11 9 8 6 5 6 7
14 14 14 13 12 11 10 10 9 8 6 5 7 9 10 12 12 11 10 9 10 11 12 12 11 10 9 9 10 10 10 11 12 11 10 8 8 9 13 17 19 19 19 18 17 15 13 13 13 12 11 10 10 10 10 9 9 9 9 8 7 8 9
16 17 15 14 13 11 10 10 11 12 8 2 8 10 9 9 11 10 10 10 10 10 12 11 10 9 8 7 8 9 9 10 12 11 10 9 11 14 18 20 21 20 19 18 16 14 13 12 11 10 9 8 7 6 6 6 7 8 9 10 10 11 11
18 18 16 15 15 14 13 14 15 16 13 9 11 13 12 12 12 10 9 9 11 11 10 9 8 8 7 6 7 8 9 11 13 13 12 12 16 20 22 22 20 18 16 15 14 14 13 11 10 9 8 7 5 3 3 4 5 6 7 8 9 9 9
20 19 17 16 15 14 14 15 15 15 13 10 10 11 11 11 11 9 6 5 7 10 9 7 6 5 5 7 9 9 9 12 15 16 14 14 17 22 24 22 19 16 16 16 14 12 11 10 8 7 5 4 2 2 2 3 5 6 6 6 6 6 7
23 21 19 16 14 12 13 13 12 12 12 11 10 10 9 8 8 8 7 4 4 6 6 5 4 4 5 6 7 9 11 14 19 20 19 19 21 21 19 18 18 18 17 15 11 8 7 7 6 6 5 5 3 3 4 5 6 7 7 6 6 6 7
25 23 21 18 15 14 14 14 12 11 10 10 11 9 7 7 6 5 6 7 7 8 7 6 5 4 5 5 6 9 11 14 17 18 18 20 20 18 16 17 18 16 13 10 8 7 6 6 6 6 7 6 4 3 4 6 7 8 7 7 7 7 7
25 24 22 20 18 17 16 14 12 10 11 12 12 10 8 9 7 4 3 4 6 8 9 9 8 6 6 6 7 8 8 8 9 10 13 14 14 16 18 17 13 10 7 5 4 4 4 4 5 5 6 5 4 5 6 7 8 8 8 7 7 7 7
22 21 21 20 19 18 17 15 13 13 14 16 16 15 13 11 8 6 5 5 6 9 10 10 10 9 8 8 8 6 4 3 4 4 6 8 8 12 15 14 10 8 8 6 5 5 5 5 5 4 4 4 5 6 6 8 8 8 7 6 5 5 6
23 21 20 19 18 18 17 16 15 15 15 16 17 17 15 14 13 12 10 9 8 10 11 10 9 9 8 7 6 5 3 3 5 5 5 6 7 9 11 10 9 9 8 8 7 6 5 4 4 4 4 5 5 5 6 7 7 6 5 5 4 4 4
27 25 24 22 21 20 18 16 16 15 14 14 15 16 15 12 11 11 10 9 8 7 8 8 7 7 7 5 5 5 5 5 6 5 4 4 5 6 7 7 7 7 7 6 6 6 5 4 4 5 5 5 5 5 5 4 4 5 5 5 5 6 6
25 25 24 23 23 22 21 19 19 18 16 15 16 17 16 14 12 11 9 8 7 7 7 7 5 5 6 6 5 6 5 3 1 1 2 3 4 4 4 4 4 5 6 6 5 4 4 4 4 4 5 4 4 4 4 4 4 5 5 5 6 7 7
Wind_Direction
265 265 266 269 275 276 276 281 286 285 284 282 277 270 263 258 255 248 240 237 231 224 221 218 217 215 213 216 218 218 218 216 217 221 225 227 220 213 216 217 217 219 209 195 203 200 183 183 188 199 202 198 199 203 205 207 205 204 209 210 204 208 214
271 271 273 273 277 280 279 279 283 288 291 287 280 275 266 256 254 251 242 237 230 221 217 217 216 215 213 214 214 213 214 214 213 217 224 230 227 219 215 214 211 208 203 195 194 201 197 185 183 189 194 194 198 204 205 204 204 203 205 206 199 205 223
270 272 275 271 271 276 278 277 279 285 291 291 284 276 266 256 252 249 240 235 229 221 218 216 215 215 212 210 211 212 213 213 215 217 222 227 231 226 217 213 205 193 193 197 190 188 194 193 187 186 189 193 195 201 202 198 198 197 196 200 199 200 216
267 265 266 264 265 269 271 271 273 278 287 290 285 274 265 256 249 244 237 232 226 221 220 218 215 212 208 205 207 211 212 213 216 220 223 224 228 226 219 214 206 194 191 195 193 188 187 191 189 182 186 193 192 194 197 192 188 191 192 198 199 193 200
268 266 266 265 264 262 262 263 269 277 282 283 278 272 266 255 245 240 236 231 225 220 218 215 211 207 203 203 204 208 212 213 216 222 224 223 222 223 219 212 205 200 196 193 191 185 182 188 186 181 182 185 184 183 186 185 184 194 196 196 199 196 198
284 281 276 275 273 267 263 262 265 272 277 276 271 267 265 255 244 240 237 232 229 227 220 212 208 204 202 203 204 209 212 213 217 221 223 223 219 216 219 217 209 202 197 191 184 176 179 187 185 184 178 175 178 176 178 184 187 193 197 201 207 205 205
288 287 284 283 280 271 264 261 262 267 273 272 270 265 259 253 247 241 236 231 228 226 216 207 204 204 204 204 206 210 214 214 216 219 222 224 222 218 216 215 209 203 198 190 180 175 182 188 186 182 172 168 173 173 177 187 190 192 201 211 214 211 211
282 282 282 284 284 272 260 260 262 266 271 270 267 263 255 252 249 240 233 227 222 215 206 203 203 203 203 205 208 213 215 215 216 221 222 219 220 220 217 211 205 203 198 186 183 188 187 188 189 184 173 165 169 175 182 189 193 200 208 213 211 211 214
299 283 269 275 284 273 256 256 259 263 267 264 261 259 252 248 242 234 229 220 212 207 201 203 205 204 204 207 210 213 214 216 217 218 216 212 215 217 214 210 203 199 195 186 186 191 191 191 190 186 183 178 176 179 185 192 197 201 201 195 195 210 222
308 289 275 275 282 270 253 252 257 261 261 256 254 255 249 239 226 220 219 209 203 204 203 204 205 204 205 207 209 210 212 216 217 212 208 207 213 215 210 206 199 193 195 192 188 191 192 191 191 189 191 194 194 191 192 195 193 193 196 188 191 211 219
310 292 287 278 270 260 250 251 255 256 255 252 250 250 244 234 219 209 209 206 202 205 205 201 199 199 201 204 207 209 211 213 210 206 203 204 209 211 205 200 197 194 195 191 187 192 193 190 190 192 194 200 206 203 203 196 177 177 195 187 190 209 200
318 299 285 265 254 250 246 246 247 245 246 249 248 245 238 230 219 205 202 207 206 204 202 198 195 196 199 202 200 201 206 207 202 199 200 202 204 203 201 199 197 199 198 187 182 191 195 191 189 193 197 201 208 205 208 206 170 165 186 181 177 187 174
325 307 291 267 254 249 242 238 236 234 239 243 241 239 232 223 216 205 200 207 211 205 198 195 197 198 201 200 195 193 199 201 199 198 196 196 195 195 202 200 191 194 199 187 186 193 195 194 190 195 200 200 207 201 199 214 176 155 165 171 167 170 167
318 313 308 287 263 250 240 232 226 227 234 236 230 228 224 214 209 206 203 206 212 210 202 197 198 200 199 197 192 189 192 196 198 198 192 189 188 191 200 198 187 191 194 187 191 194 194 198 193 194 201 199 204 199 190 203 181 150 152 159 158 169 171
307 309 318 305 265 240 232 227 223 226 231 230 223 213 211 210 210 211 210 209 213 212 207 205 203 200 197 193 188 184 188 192 192 191 193 192 189 188 190 191 189 192 191 188 193 193 194 198 196 197 201 199 201 195 186 194 179 154 152 150 152 164 165
283 293 319 318 283 250 239 232 225 227 228 225 217 206 205 209 212 217 218 218 221 215 208 210 209 201 194 191 190 186 188 190 187 188 195 193 188 185 184 186 188 190 190 189 191 192 194 197 198 201 202 200 198 188 181 185 174 158 155 153 154 157 161
266 274 307 316 296 275 262 250 235 227 223 219 213 206 206 208 210 216 217 217 222 222 213 207 203 197 190 187 188 186 185 188 187 188 193 191 188 186 181 181 187 190 190 190 190 191 195 198 198 204 205 198 191 184 178 174 169 165 160 160 161 160 167
262 260 279 294 290 282 271 260 248 233 223 218 214 207 206 207 209 214 211 200 204 214 213 201 191 189 183 177 180 182 182 187 192 193 195 195 194 189 182 182 188 190 190 191 192 190 195 198 197 204 210 196 179 179 178 169 166 170 168 168 171 170 174
278 259 269 280 280 288 285 268 254 241 229 221 214 206 204 207 209 209 205 197 194 200 201 192 185 184 181 179 181 182 180 186 194 195 195 198 198 191 186 185 187 190 191 190 191 188 189 194 195 202 211 195 176 176 175 169 169 174 175 178 180 180 183
306 263 257 270 264 280 300 283 262 244 232 220 212 208 208 211 207 200 201 200 191 188 188 188 187 185 184 188 188 186 187 190 193 192 189 190 192 189 187 186 186 187 186 188 192 187 183 188 192 196 198 191 183 179 174 173 176 178 182 188 189 191 194
338 291 251 252 250 251 272 273 258 241 232 222 213 214 217 216 207 198 199 196 183 177 181 189 191 188 189 194 194 195 197 193 187 184 182 183 185 185 181 177 180 183 184 188 191 186 183 185 185 188 189 184 180 178 176 179 184 188 193 195 196 198 197
357 335 285 261 253 254 263 262 256 242 231 221 215 216 221 219 210 201 198 191 177 171 179 194 196 189 189 193 196 199 194 187 182 181 183 179 176 182 184 179 181 186 187 188 188 186 184 180 175 177 181 177 175 177 180 185 192 196 200 202 203 202 201
18 14 8 353 293 271 277 271 263 252 236 225 222 225 226 217 205 196 193 188 181 177 186 204 203 192 190 188 192 195 188 181 181 182 185 184 180 186 191 188 186 185 185 184 185 184 180 175 173 176 178 178 179 183 185 190 197 200 205 208 207 207 211
33 34 32 26 24 0 306 285 268 261 249 230 225 227 221 207 198 195 193 190 191 193 199 205 199 191 188 185 187 189 183 182 184 183 188 192 193 195 193 189 185 181 178 177 176 174 171 171 174 174 175 179 181 181 180 182 189 197 206 213 212 212 218
42 41 40 33 30 21 352 326 281 265 263 238 223 220 210 199 195 194 193 188 192 196 191 188 185 182 182 184 187 186 184 187 186 185 191 195 199 201 195 190 185 176 171 169 168 168 166 165 166 166 169 174 179 182 182 183 185 188 199 214 217 218 221
45 43 43 39 29 19 10 9 352 299 280 244 212 207 202 197 191 187 179 168 169 171 169 170 172 174 177 180 184 184 188 192 190 191 196 195 195 196 189 184 179 170 166 164 163 165 166 165 165 170 176 180 185 191 195 198 200 200 203 205 203 212 214
49 47 48 45 35 25 20 25 26 4 321 246 197 186 190 185 173 162 152 149 159 163 164 165 168 173 174 175 180 186 188 190 191 195 199 197 197 192 183 178 173 167 166 165 163 163 167 171 173 176 179 181 186 192 195 201 208 212 214 208 204 218 224
50 49 50 52 49 45 42 47 53 48 37 120 143 131 133 134 129 131 138 148 158 160 161 164 170 178 182 182 186 190 190 190 192 195 200 203 198 186 176 172 171 171 172 169 166 164 160 161 163 162 161 162 166 175 185 194 200 206 214 215 216 224 228
49 46 48 54 58 62 68 71 73 71 71 96 116 116 119 121 120 127 141 156 164 162 160 164 171 181 192 202 206 205 201 199 195 194 198 200 192 181 174 171 173 177 175 165 159 158 152 149 151 149 146 145 141 142 165 195 204 206 212 216 217 221 224
50 48 47 49 54 64 74 76 76 77 82 99 114 115 117 116 116 124 139 163 168 159 155 160 171 190 207 214 217 218 216 207 200 197 196 191 185 182 179 178 176 170 162 153 148 149 147 146 150 157 164 172 178 191 206 215 218 215 214 215 217 219 223
52 53 51 48 49 60 69 71 75 80 88 103 110 105 104 112 120 132 145 163 154 136 137 149 176 212 219 212 217 221 216 207 199 195 187 180 183 187 182 174 168 160 154 152 152 154 155 156 165 187 212 224 230 231 227 229 227 220 215 216 219 220 219
49 52 53 51 52 59 65 66 71 80 89 104 111 106 112 133 139 131 138 157 159 150 153 161 176 206 208 199 210 215 209 202 198 193 185 180 182 185 175 162 158 158 158 161 167 176 182 178 181 200 216 220 229 244 237 231 225 217 215 216 219 222 223
48 50 54 56 57 59 61 62 66 77 88 100 108 108 112 130 148 150 114 124 148 153 156 161 165 176 185 187 196 205 206 199 193 192 188 181 169 162 162 161 160 166 178 188 198 214 223 211 198 207 216 218 241 255 237 222 216 213 211 211 212 216 220
54 54 56 60 63 65 66 68 74 82 90 95 98 98 94 95 108 117 101 98 123 132 133 141 152 162 171 177 182 192 206 198 177 177 187 184 161 155 166 176 186 203 220 241 260 259 249 236 224 221 225 232 245 245 224 206 203 202 197 194 199 211 218
66 64 60 59 61 64 66 69 70 72 78 84 86 86 85 82 83 88 90 91 104 114 116 122 135 146 153 159 162 165 165 156 158 166 185 195 189 185 193 206 219 227 236 248 253 246 230 219 214 210 214 217 214 209 199 191 187 181 173 173 179 185 188
69 68 67 65 64 66 68 69 68 65 63 68 73 74 73 74 76 82 85 83 81 90 101 109 120 130 130 128 136 142 136 128 131 141 164 189 195 197 203 213 224 230 229 225 224 218 200 182 174 176 180 179 172 163 161 162 157 153 162 176 185 184 175
67 66 66 66 66 68 69 70 72 71 68 66 67 67 65 64 64 64 67 72 76 81 90 98 116 130 124 119 126 130 126 118 119 223 250 237 220 204 195 208 234 242 236 228 218 199 172 153 147 151 154 151 144 135 131 135 145 160 178 186 191 199 196